Home   Weather   Aberdeen   Past weeks
Flag for Australia

Past Weather in Aberdeen, New South Wales, Australia — Yesterday and Last 2 Weeks

Now
51 °F

Cool.


Feels Like: 51 °F
Forecast: 87 / 47 °F
Wind: 2 mph from West

Location: Scone Airport Aws

Current Time: Oct 23, 2019 at 6:16:51 am

Latest Report: Oct 23, 2019 at 4:00 am


Visibility: N/A

Pressure: 30.18 "Hg

Humidity: 73%

Dew Point: 42 °F

Location of AberdeenLocation

Past Weather in Aberdeen — Graph

°F

Aberdeen Temperature Yesterday

Maximum temperature yesterday: 85 °F (at 4:00 pm)
Minimum temperature yesterday: 47 °F (at 6:00 am)
Average temperature yesterday: 66 °F

High & Low Weather Summary for the Past Weeks

 TemperatureHumidityPressure
High92 °F (Oct 16, 1:00 pm)100% (Oct 17, 6:00 am)30.31 "Hg (Oct 17, 6:00 am)
Low43 °F (Oct 21, 6:00 am)5% (Oct 18, 4:00 pm)29.71 "Hg (Oct 17, 4:00 am)
Average63 °F51%30.02 "Hg
* Reported Oct 8 4:00 am — Oct 23 4:00 am, Aberdeen. Weather by CustomWeather, © 2019

Note: Actual official high and low records may vary slightly from our data, if they occured in-between our weather recording intervals... More about our weather records

Advertising

Aberdeen Weather History for the Previous 24 Hours

Scroll right to see more
 ConditionsComfort  
Time TempWeatherWind HumidityBarometerVisibility
4:00 am
Wed, Oct 23
51 °FCool.2 mph73%30.18 "HgN/A
3:00 am54 °FCool.No wind87%30.18 "HgN/A
1:00 am59 °FCool.6 mph75%30.19 "HgN/A
12:00 am61 °FCool.7 mph67%30.19 "HgN/A
10:00 pm
Tue, Oct 22
64 °FMild.6 mph28%30.16 "HgN/A
9:00 pm69 °FMild.3 mph22%30.15 "HgN/A
7:00 pm78 °FPleasantly warm.8 mph15%30.13 "HgN/A
6:00 pm83 °FPleasantly warm.13 mph10%30.11 "HgN/A
4:00 pm85 °FPleasantly warm.10 mph11%30.11 "HgN/A
3:00 pm83 °FPleasantly warm.7 mph9%30.14 "HgN/A
1:00 pm79 °FPleasantly warm.7 mph18%30.19 "HgN/A
12:00 pm78 °FPleasantly warm.6 mph26%30.23 "HgN/A
10:00 am67 °FMild.6 mph50%30.28 "HgN/A
9:00 am63 °FMild.3 mph61%30.29 "HgN/A
7:00 am49 °FCool.No wind89%30.28 "HgN/A
6:00 am47 °FCool.No wind92%30.26 "HgN/A
Weather by CustomWeather, © 2019

See weather overview